Wind_Speed
96 104 111 114 112 111 111 104 106 105 105 107 114 120 124 125 122 116 113 103 97 97 101 101 102 102 103 105 105 104 103 102 98 99 105 110 114 119 124 127 127 127 126
102 104 101 104 109 113 116 113 112 107 105 116 125 129 133 128 117 114 105 102 99 99 101 102 101 100 100 100 100 101 101 101 98 95 101 104 107 112 115 119 120 122 125
109 106 106 111 112 110 111 115 112 112 119 128 129 138 131 126 110 105 101 99 98 100 99 99 98 95 94 94 94 94 96 96 95 92 91 97 101 104 107 112 116 119 119
103 107 107 109 111 112 113 115 120 126 127 132 138 136 131 116 109 104 99 98 97 97 94 93 92 92 91 91 91 93 93 92 92 90 88 91 94 98 100 103 108 114 117
102 109 109 107 116 115 117 117 121 128 134 139 139 133 123 112 109 104 100 97 95 93 90 90 89 89 89 89 89 91 90 90 90 89 87 87 90 94 95 98 98 107 111
112 111 113 113 113 118 119 125 130 138 143 145 136 127 116 111 107 103 100 96 92 90 88 88 88 87 86 86 87 87 88 88 89 89 86 85 85 87 89 91 91 96 102
118 117 117 116 120 120 126 138 140 145 145 145 140 126 116 110 105 101 97 93 89 87 85 85 84 83 82 83 83 84 85 86 87 87 85 85 84 84 84 84 85 89 94
120 120 120 121 123 131 139 145 147 150 150 152 138 125 116 110 105 100 95 90 86 85 82 80 79 79 80 79 79 82 84 85 86 86 83 84 85 84 84 83 83 83 87
123 122 125 126 132 141 144 149 152 155 153 149 132 125 116 109 104 98 92 89 85 82 80 79 77 79 79 77 75 77 79 81 81 82 81 81 81 83 85 83 84 82 84
127 128 131 136 143 150 154 156 155 158 149 137 130 122 113 108 102 97 91 87 84 80 79 78 76 76 75 74 73 73 74 77 78 79 79 78 77 78 80 80 82 83 84
131 133 138 143 149 157 160 159 159 154 144 133 127 118 112 107 101 94 89 85 82 80 77 75 75 74 72 73 74 73 72 74 78 77 78 78 74 74 75 76 77 79 83
137 141 149 154 158 161 161 164 159 144 137 130 121 115 110 104 98 91 86 82 79 77 76 75 75 74 74 74 73 71 70 69 70 72 73 73 71 70 69 69 72 75 79
144 153 157 159 160 163 164 155 141 137 132 123 116 112 106 99 94 90 84 81 79 77 78 79 76 73 70 70 69 67 67 68 68 69 70 71 71 70 70 67 68 70 71
153 158 161 165 165 164 157 140 138 133 123 118 114 108 102 96 92 86 82 78 77 79 79 76 74 71 69 67 67 67 66 67 68 68 69 69 69 69 68 64 65 65 67
161 164 166 165 161 153 138 138 132 123 117 114 109 103 97 92 89 84 79 77 77 79 78 73 68 67 68 67 66 65 66 66 67 67 69 70 69 68 65 61 61 62 64
164 166 166 164 148 139 133 131 121 117 113 108 103 97 92 88 86 82 79 76 74 76 73 70 67 65 66 65 64 63 63 64 65 65 66 68 69 68 66 61 59 60 63
165 167 160 143 140 133 126 118 115 110 105 100 95 91 88 85 82 81 80 76 72 72 71 67 65 64 64 64 63 61 60 60 61 61 63 64 64 65 63 61 59 59 61
162 144 138 137 132 123 119 111 106 102 97 92 89 87 85 81 79 78 76 73 71 70 69 66 64 65 63 62 61 59 57 57 55 56 57 58 59 60 59 58 57 57 57
141 140 135 127 122 116 109 103 98 94 89 86 84 84 81 79 79 77 74 72 70 69 67 64 63 64 62 59 59 57 56 54 53 53 53 53 53 54 54 55 55 54 57
137 135 124 120 112 106 101 95 91 86 83 81 81 80 79 78 76 74 71 69 68 69 66 63 60 62 61 58 57 56 54 52 52 51 51 51 51 50 51 51 52 54 54
127 123 115 109 103 98 94 90 85 81 79 78 79 80 79 76 75 73 70 67 68 69 66 62 58 59 59 58 56 55 52 50 49 49 50 50 50 49 47 49 49 50 52
118 111 105 100 95 92 89 86 83 80 78 78 79 79 78 75 74 72 70 67 66 67 63 60 57 56 57 56 54 53 49 47 47 47 48 48 48 47 46 45 46 47 47
108 102 97 95 93 91 88 85 82 80 79 78 77 76 74 72 70 69 67 65 63 63 60 58 55 54 54 54 53 50 46 45 44 45 46 45 45 44 44 43 42 42 44
101 97 93 91 90 88 86 84 81 80 78 76 74 72 71 69 67 64 62 61 60 58 57 55 52 51 51 51 51 48 45 43 42 42 43 43 43 43 42 42 42 42 42
96 94 92 89 86 84 82 81 79 77 75 72 71 69 68 66 63 61 59 57 55 55 54 52 50 49 48 48 48 46 43 42 42 41 40 40 41 42 40 39 40 41 42
93 92 88 84 81 81 80 79 76 74 71 69 67 66 65 63 60 57 54 52 51 51 51 50 48 46 45 45 45 44 41 40 41 41 40 39 39 40 40 38 39 39 39
Wind_Direction
289 290 293 295 296 299 297 295 296 298 308 309 305 313 312 308 303 301 296 297 294 289 286 283 281 278 277 276 274 271 269 268 264 259 257 257 258 257 257 257 257 257 257
292 294 295 296 295 295 298 302 300 303 308 311 311 314 312 311 304 300 298 296 294 290 287 285 283 281 279 277 275 273 272 270 267 262 261 259 257 257 257 258 257 256 255
288 291 294 292 295 299 295 299 305 310 312 314 313 314 315 314 307 303 299 296 294 291 289 287 285 282 280 278 276 274 273 272 271 268 263 261 259 258 257 257 258 258 257
288 290 294 297 299 302 307 310 315 316 313 314 314 315 314 310 305 301 298 295 293 290 289 286 283 282 280 279 278 276 274 273 271 269 266 262 261 260 257 255 256 257 258
296 297 299 303 300 303 308 310 313 313 314 314 315 314 312 307 304 301 298 296 294 292 289 286 284 282 280 279 278 277 275 274 272 270 267 264 262 260 258 256 254 255 255
301 301 304 306 306 307 313 315 313 315 313 315 316 313 310 306 303 300 298 296 293 292 289 286 284 283 283 281 279 278 277 276 275 273 270 267 264 261 259 257 255 254 254
306 306 305 306 309 313 314 314 313 313 315 316 315 311 309 306 303 301 299 297 295 292 290 287 285 283 282 281 280 279 277 275 273 272 271 269 266 265 261 258 255 253 251
305 305 305 307 312 313 313 313 312 314 315 316 313 311 309 306 303 302 300 298 296 294 292 288 286 284 283 282 281 279 278 275 274 271 269 268 268 266 264 261 259 255 251
304 308 309 312 312 312 311 312 313 314 314 313 311 311 308 305 304 303 300 298 297 296 293 291 289 287 286 285 282 279 278 276 275 274 272 269 267 265 264 263 261 258 255
307 309 310 310 311 311 311 312 314 314 314 311 310 309 307 306 305 302 301 300 298 297 294 293 291 289 289 287 283 281 278 277 276 275 273 270 268 266 264 262 261 260 257
308 308 308 310 309 309 310 313 313 312 310 309 309 308 306 305 304 302 301 300 299 298 296 293 291 291 290 286 284 282 280 278 278 276 275 272 270 266 264 263 261 259 259
306 307 307 307 307 309 311 312 311 310 308 308 307 306 304 304 302 301 300 300 299 297 295 293 292 292 290 288 285 284 281 278 276 276 275 274 272 270 267 264 262 260 258
305 306 308 307 308 309 309 309 309 308 308 307 306 304 303 302 301 301 300 300 299 297 295 294 294 292 290 287 286 284 281 280 278 276 275 274 272 270 269 266 263 262 261
304 304 305 307 308 308 308 307 307 307 307 305 304 302 302 301 300 300 300 299 298 296 293 293 292 291 288 286 285 283 282 280 279 278 276 275 274 272 271 270 267 264 263
302 303 305 306 306 307 305 306 306 306 305 303 301 300 300 300 299 300 299 299 297 293 292 292 291 289 288 286 284 283 282 280 279 278 278 278 277 276 274 271 269 267 265
303 303 304 304 304 304 305 305 305 304 302 301 299 299 300 298 298 299 298 297 294 292 291 292 291 289 286 285 283 282 281 280 279 278 276 276 277 277 276 274 271 269 266
301 302 303 303 303 304 304 304 303 301 300 299 298 298 297 297 297 297 297 296 294 293 293 292 291 289 287 286 285 283 282 279 278 278 277 276 274 274 274 273 271 268 265
300 302 302 302 302 302 302 301 301 299 298 298 298 296 296 296 296 296 296 296 296 294 294 293 292 290 289 287 286 284 283 281 280 278 276 274 274 273 272 271 270 268 264
300 301 301 301 301 301 301 300 299 298 298 298 296 295 296 296 296 296 296 296 295 294 293 293 293 291 290 288 287 285 284 283 281 278 276 274 272 271 270 270 269 267 267
299 300 300 301 301 300 299 298 297 298 297 296 295 295 295 295 295 296 297 296 296 295 294 294 293 291 290 289 287 286 284 283 281 279 277 275 272 270 270 269 268 268 266
298 299 300 300 300 299 298 297 298 298 297 297 297 296 295 297 297 297 297 297 296 294 294 294 292 290 288 288 286 285 284 283 281 279 276 275 274 272 270 270 268 266 265
298 300 300 300 299 299 299 299 298 298 297 298 297 296 296 297 297 297 296 296 294 292 292 291 290 288 286 285 284 283 283 282 279 277 275 274 274 274 273 269 267 267 265
299 300 300 300 299 299 299 298 298 297 297 297 296 295 295 295 295 294 294 293 291 290 289 288 287 285 284 284 283 283 283 280 277 275 275 275 275 275 274 272 270 269 268
299 300 299 298 298 297 297 298 298 298 297 297 296 295 295 294 294 293 291 290 289 288 286 286 285 284 283 282 282 282 281 279 276 276 276 276 275 275 273 273 273 271 270
299 298 297 297 296 296 296 296 297 297 297 296 295 294 294 293 292 291 290 289 288 287 286 285 284 282 281 280 280 280 279 278 277 275 274 274 274 273 272 270 270 270 270
296 295 295 295 295 296 296 298 298 297 296 295 294 294 292 292 292 291 291 290 288 286 285 284 283 281 280 278 278 278 278 276 275 275 274 274 273 273 273 271 271 270 269
Height
10572 10562 10553 10544 10535 10525 10517 10506 10492 10481 10467 10454 10444 10430 10415 10400 10382 10366 10353 10340 10329 10318 10310 10301 10293 10287 10280 10275 10273 10271 10270 10270 10282 10291 10286 10285 10285 10283 10283 10292 10302 10312 10321
10548 10538 10528 10516 10507 10499 10490 10477 10465 10451 10436 10423 10410 10397 10381 10362 10344 10332 10319 10307 10296 10285 10276 10267 10259 10254 10248 10242 10239 10237 10236 10234 10240 10254 10253 10252 10254 10251 10253 10253 10260 10271 10279
10525 10515 10503 10492 10484 10473 10460 10445 10431 10417 10405 10392 10379 10363 10343 10325 10312 10299 10287 10276 10263 10251 10242 10234 10226 10220 10214 10210 10207 10205 10202 10202 10202 10212 10225 10215 10217 10218 10226 10227 10226 10229 10239
10499 10488 10475 10465 10456 10446 10430 10415 10399 10386 10373 10360 10345 10328 10309 10294 10280 10268 10257 10244 10232 10221 10212 10204 10195 10189 10182 10178 10175 10171 10170 10170 10170 10175 10183 10184 10183 10185 10190 10194 10197 10198 10202
10473 10461 10449 10438 10429 10416 10401 10384 10369 10357 10342 10326 10310 10292 10274 10260 10246 10234 10224 10212 10200 10190 10182 10175 10167 10160 10154 10150 10146 10141 10139 10139 10138 10141 10147 10152 10150 10151 10154 10156 10169 10165 10168
10445 10433 10421 10411 10399 10386 10369 10354 10342 10326 10311 10291 10271 10257 10242 10229 10217 10203 10189 10180 10171 10162 10153 10145 10139 10133 10127 10122 10118 10115 10112 10109 10107 10107 10113 10118 10117 10117 10122 10127 10136 10140 10146
10414 10404 10391 10383 10368 10352 10338 10326 10310 10294 10273 10253 10238 10224 10212 10198 10184 10172 10160 10151 10142 10133 10127 10119 10111 10105 10100 10095 10092 10088 10083 10080 10079 10080 10083 10082 10087 10086 10090 10096 10104 10113 10114
10385 10375 10363 10350 10335 10322 10309 10294 10276 10255 10237 10220 10204 10190 10178 10164 10152 10142 10132 10123 10115 10106 10099 10091 10084 10077 10071 10070 10068 10061 10056 10052 10049 10052 10055 10053 10055 10056 10059 10064 10071 10079 10082
10355 10345 10331 10316 10304 10291 10276 10260 10241 10224 10204 10186 10172 10160 10148 10134 10123 10114 10105 10096 10088 10080 10071 10063 10057 10050 10045 10043 10042 10037 10031 10024 10023 10022 10024 10025 10027 10029 10029 10035 10038 10046 10048
10325 10312 10300 10286 10273 10260 10244 10230 10210 10192 10176 10158 10143 10131 10117 10104 10094 10086 10077 10069 10060 10053 10046 10038 10031 10026 10022 10018 10015 10013 10010 10001 9997 9996 9995 9996 10001 10002 10002 10009 10009 10012 10015
10294 10283 10270 10256 10243 10229 10213 10197 10180 10164 10146 10131 10116 10101 10088 10077 10066 10059 10051 10043 10036 10028 10021 10013 10007 10003 10000 9994 9991 9988 9986 9980 9971 9970 9967 9967 9973 9976 9977 9979 9983 9984 9983
10263 10251 10240 10228 10213 10197 10180 10164 10149 10131 10116 10101 10086 10071 10060 10051 10040 10032 10025 10019 10012 10004 9996 9990 9985 9981 9974 9969 9966 9964 9961 9957 9952 9947 9944 9942 9946 9947 9951 9954 9956 9956 9957
10234 10221 10210 10196 10181 10167 10151 10136 10117 10102 10087 10071 10056 10044 10032 10025 10015 10006 9999 9995 9988 9980 9972 9965 9962 9957 9951 9945 9942 9941 9936 9933 9929 9927 9923 9920 9922 9923 9924 9931 9932 9932 9933
10203 10190 10178 10166 10151 10135 10120 10104 10089 10073 10057 10042 10029 10016 10007 10000 9991 9983 9977 9971 9965 9957 9949 9945 9940 9934 9929 9926 9921 9918 9915 9910 9906 9904 9900 9898 9898 9899 9900 9906 9907 9910 9910
10174 10160 10148 10134 10119 10105 10088 10074 10059 10044 10030 10014 10001 9992 9985 9976 9967 9961 9956 9950 9942 9933 9927 9923 9919 9914 9908 9904 9901 9898 9893 9889 9885 9883 9879 9875 9874 9875 9877 9883 9884 9885 9885
10144 10129 10116 10101 10087 10073 10058 10044 10030 10016 10002 9988 9977 9969 9961 9953 9945 9938 9933 9929 9921 9910 9907 9902 9898 9893 9886 9882 9879 9876 9873 9868 9863 9860 9858 9855 9853 9854 9855 9859 9862 9862 9861
10112 10097 10083 10066 10054 10040 10027 10015 10002 9987 9975 9964 9954 9945 9936 9931 9924 9917 9910 9904 9897 9889 9883 9879 9874 9869 9864 9859 9856 9854 9852 9849 9844 9841 9838 9836 9834 9833 9833 9836 9838 9840 9839
10078 10062 10050 10035 10021 10007 9997 9985 9974 9961 9951 9941 9929 9920 9915 9909 9903 9896 9888 9881 9875 9867 9861 9857 9852 9846 9842 9838 9835 9833 9831 9828 9827 9823 9820 9816 9814 9812 9813 9815 9816 9816 9817
10041 10031 10016 10004 9991 9977 9967 9955 9945 9934 9925 9915 9905 9897 9892 9886 9880 9872 9866 9859 9852 9845 9840 9837 9831 9824 9821 9818 9814 9813 9811 9809 9806 9804 9801 9798 9797 9795 9795 9795 9795 9798 9796
10006 9997 9983 9970 9958 9946 9935 9926 9917 9909 9901 9892 9883 9875 9868 9864 9857 9850 9844 9838 9830 9823 9819 9817 9812 9805 9800 9799 9796 9793 9793 9790 9787 9785 9783 9780 9779 9779 9778 9778 9778 9777 9779
9974 9964 9953 9939 9927 9917 9907 9897 9890 9883 9876 9868 9860 9851 9844 9840 9833 9827 9822 9816 9809 9801 9798 9796 9794 9787 9782 9779 9778 9776 9775 9773 9769 9767 9765 9763 9762 9762 9762 9762 9761 9761 9760
9944 9932 9921 9910 9899 9888 9879 9872 9864 9858 9851 9844 9836 9829 9821 9818 9811 9804 9800 9795 9789 9782 9779 9776 9774 9769 9764 9761 9760 9758 9758 9756 9754 9751 9749 9747 9746 9745 9745 9746 9745 9745 9744
9911 9902 9891 9879 9869 9861 9853 9846 9839 9833 9827 9821 9814 9806 9800 9795 9790 9784 9778 9773 9768 9763 9760 9757 9755 9751 9747 9744 9742 9741 9742 9740 9739 9736 9734 9733 9731 9730 9730 9729 9729 9729 9728
9881 9872 9863 9854 9846 9837 9828 9821 9815 9810 9804 9797 9791 9784 9778 9773 9768 9764 9759 9754 9749 9745 9740 9738 9737 9734 9731 9728 9726 9725 9724 9724 9723 9722 9719 9718 9717 9716 9716 9715 9714 9714 9714
9853 9844 9836 9829 9822 9814 9807 9801 9795 9788 9782 9775 9769 9762 9756 9751 9748 9744 9740 9735 9731 9725 9722 9721 9719 9718 9715 9713 9710 9709 9709 9707 9707 9707 9706 9704 9703 9702 9702 9702 9702 9701 9701
9827 9819 9812 9805 9798 9792 9784 9777 9771 9765 9759 9754 9748 9741 9736 9731 9727 9723 9719 9716 9712 9708 9705 9704 9703 9702 9700 9697 9695 9694 9694 9693 9692 9691 9691 9691 9690 9688 9687 9687 9687 9687 9688